Regional Weather Roundup
Issued by NWS Goodland, KS

Home | Current Version | Previous Version | Graphics & Text | Print | Product List | Glossary Off
Versions: 1 2 3 4 5 6 7 8 9 10 11 12 13 14 15 16 17 18 19 20 21 22 23 24 25 26 27 28 29 30 31 32 33 34 35 36 37 38 39 40 41 42 43 44 45 46 47 48 49 50

000
ASUS43 KGLD 251408
RWRGLD

GOODLAND FORECAST AREA HOURLY WEATHER ROUNDUP
NATIONAL WEATHER SERVICE GOODLAND KS
800 AM MDT MON JUL 25 2016

...OFFICIAL OBSERVATIONS...

CITY           SKY/WX    TMP DP  RH WIND       PRES   REMARKS
GOODLAND KS    SUNNY     68  60  75 CALM      30.19S
HILL CITY KS   CLOUDY    71  65  81 NE13      30.15R
IMPERIAL NEB   SUNNY     67  61  81 E5        30.20R
MCCOOK NEB     SUNNY     70  63  78 E9        30.17R
AKRON CO       SUNNY     64  56  75 SE15      30.21F
BURLINGTON CO  SUNNY     67  58  72 SE3       30.22S
LIMON CO       SUNNY     63  56  78 S9        30.27S
$$

...UNOFFICIAL OBSERVATIONS...

CITY           SKY/WX    TMP DP  RH WIND       PRES   REMARKS
COLBY KS       SUNNY     70  64  83 N5        30.19R
LENORA KS        N/A     67  32  27 MISG        N/A
NORTON KS      SUNNY     73  57  56 E14G20    30.16R
YUMA CO          N/A     67  61  80 SE6         N/A
$$




USA.gov is the U.S. government's official web portal to all federal, state and local government web resources and services.